[[{"header":{"parameterUnit":"m.s-1","parameterCategory":1,"la1":30.2991,"la2":30.254,"lo1":-89.0895,"lo2":-89.0444,"dy":0.0017,"dx":0.0017,"nx":28,"ny":28,"refTime":"2024-12-19T09:00:00:Z","depth":0,"parameterNumber":2,"parameterNumberName":"U-component_of_WINDS"},"data":[0,0,0,0,0,0,0,0,0,0,0,0,0,0,0,0,0,0,0,0,0,0,0,0,0,0,0,0,0,0,0,0,0,0,0,0,0,0,0,0,0,0,0,0,0,0,0,0,0,0,0,0,0,0,0,0,0,0,2.2515,2.2516,0,2.258,2.2581,2.2581,2.2542,2.254,2.2538,2.2537,2.2608,2.2611,2.2615,0,0,0,0,0,0,0,0,0,0,0,0,0,2.2364,2.2367,2.2515,2.2516,2.2517,2.258,2.2581,2.2581,2.2542,2.254,2.2538,2.2536,2.2607,2.2611,2.2615,0,0,0,0,0,0,0,0,0,0,0,0,0,2.2429,2.2368,2.2515,2.2505,2.2505,2.258,2.2581,2.2582,2.2543,2.254,2.2537,2.2535,2.2605,2.261,2.2616,2.2706,0,0,2.2633,2.2635,0,0,0,0,0,0,0,0,2.2426,2.2435,2.2506,2.2506,2.2505,2.255,2.2553,2.2624,2.2544,2.2529,2.2536,2.2533,2.2591,2.2598,2.2616,2.271,2.2713,2.2633,2.2636,2.2639,2.264,0,0,0,0,0,0,0,2.2421,2.2432,2.2541,2.2507,2.2507,2.2499,2.2505,2.2566,2.2575,2.253,2.2527,2.2535,2.2591,2.2611,2.2617,2.2714,2.2633,2.2638,2.2641,2.2643,2.2886,2.2889,0,0,0,0,0,0,2.2417,2.2428,2.2539,2.2543,2.2458,2.2504,2.2511,2.2539,2.2574,2.2577,2.2537,2.2533,2.2603,2.2611,2.262,2.2728,2.2639,2.2644,2.2647,2.2882,2.2886,2.289,0,0,0,0,0,0,2.2414,2.2427,2.2536,2.2485,2.2498,2.2509,2.2541,2.2541,2.2561,2.258,2.2582,2.2556,2.2601,2.2612,2.2685,2.273,2.2646,2.2651,2.2879,2.2884,2.2888,2.2946,0,0,0,0,0,0,2.2409,2.2426,2.2459,2.2486,2.2501,2.2599,2.2544,2.2545,2.257,2.2565,2.2598,2.2601,2.26,2.2677,2.269,2.2736,2.2656,2.2875,2.2881,2.2886,2.294,2.2952,2.2962,0,0,0,0,0,2.2404,2.2474,2.2461,2.2475,2.2542,2.2601,2.261,2.2606,2.2574,2.2608,2.262,2.26,2.2723,2.2685,2.2699,2.2748,2.2872,2.2879,2.2886,2.2935,2.295,2.2962,0,0,0,0,0,0,2.2454,2.2477,2.2463,2.2543,2.2571,2.2595,2.2638,2.2622,2.266,2.2654,2.2649,2.2657,2.2732,2.2747,2.2704,2.2838,2.2793,2.2803,2.2825,2.2839,2.285,2.2845,2.266,0,0,0,0,0,2.2474,2.2518,2.2537,2.2606,2.262,2.2627,2.2652,2.2647,2.2675,2.2687,2.2704,2.2735,2.278,2.281,2.2853,2.2942,2.2949,2.2983,2.2994,2.3003,2.3012,2.3061,2.3076,2.2913,2.2913,2.2913,0,0,2.2516,2.2534,2.2563,2.2616,2.2637,2.2684,2.2637,2.2689,2.2725,2.2696,2.2765,2.2779,2.2812,2.2894,2.293,2.2908,2.3059,2.3012,2.3019,2.3023,2.307,2.3085,2.3099,2.2918,2.2917,2.2916,0,0,2.2618,2.2636,2.2695,2.2716,2.2747,2.2751,2.2766,2.2792,2.28,2.2869,2.2848,2.2892,2.297,2.2995,2.3018,2.3129,2.3112,2.3144,2.3202,2.325,2.3263,2.3274,2.3315,2.3329,2.3153,2.3153,2.3153,0,2.2667,2.2736,2.2728,2.2782,2.2807,2.2781,2.2842,2.2864,2.2908,2.2927,2.2901,2.2999,2.302,2.3107,2.3134,2.3153,2.3171,2.314,2.3261,2.3273,2.3283,2.3322,2.3337,2.3157,2.3156,2.3156,2.3155,0,2.2796,2.2844,2.2889,2.293,2.296,2.3017,2.302,2.3051,2.3044,2.3051,2.3122,2.3146,2.3194,2.3214,2.3207,2.3301,2.3286,2.3261,2.3216,2.3303,2.3339,2.3353,2.3162,2.316,2.3159,2.3158,0,0,2.293,2.2966,2.2983,2.3002,2.3034,2.3072,2.3129,2.3174,2.3202,2.3233,2.3282,2.3349,2.3326,2.3352,2.3348,2.339,2.3478,2.336,2.3361,2.3382,2.3583,2.3602,2.3619,2.3466,2.3469,2.3471,2.3581,0,2.3034,2.3131,2.3126,2.3218,2.3263,2.324,2.329,2.3316,2.3325,2.3366,2.3376,2.3424,2.339,2.3405,2.3446,2.3459,2.3518,2.3451,2.3513,2.3516,2.3506,2.3638,2.3658,2.376,2.3595,2.3597,2.3599,0,2.3168,2.3202,2.3298,2.3324,2.3343,2.3388,2.3429,2.3468,2.3498,2.3501,2.3531,2.352,2.358,2.3533,2.3616,2.357,2.3595,2.3606,2.3609,2.3615,2.3563,2.3648,2.3792,2.3807,2.3621,2.3619,2.3618,0,2.3257,2.3328,2.3394,2.3411,2.3443,2.3475,2.349,2.3517,2.3545,2.3581,2.3599,2.3643,2.3667,2.3702,2.3705,2.367,2.3789,2.3742,2.3795,2.3795,2.3821,2.3819,2.3971,2.3837,2.3837,2.3836,2.3836,0,2.3373,2.3433,2.3434,2.3476,2.3543,2.3537,2.3604,2.3616,2.3641,2.3685,2.3668,2.3711,2.3711,2.3755,2.3757,2.3826,2.3837,2.3843,2.3843,2.3845,2.3844,2.3861,2.3855,2.384,2.3839,2.3839,2.3838,0,2.3484,2.3487,2.3558,2.3582,2.359,2.3638,2.366,2.37,2.3707,2.3763,2.3777,2.3788,2.3839,2.3845,2.3904,2.3906,2.3989,2.3982,2.3979,2.3977,2.403,2.4025,2.4199,2.4222,2.4072,2.4074,2.4075,0,2.3558,2.3603,2.3632,2.366,2.3676,2.3721,2.3749,2.3746,2.3776,2.3814,2.385,2.3898,2.3937,2.402,2.4035,2.4081,2.4074,2.4132,2.4081,2.4082,2.4076,2.4073,2.4078,2.4142,2.4144,2.4145,2.4146,0,2.369,2.3689,2.3728,2.3769,2.3802,2.3834,2.3864,2.3888,2.3889,2.3924,2.3975,2.4005,2.4065,2.4115,2.416,2.4177,2.4163,2.4162,2.4177,2.4179,2.4176,2.4179,2.4006,2.4158,2.4157,2.4156,2.4156,2.4155,2.3785,2.3824,2.385,2.3895,2.3917,2.3946,2.3984,2.3996,2.4038,2.4085,2.4082,2.4138,2.4169,2.4227,2.4248,2.4294,2.4275,2.4296,2.4302,2.4307,2.4313,2.4168,2.4302,2.4302,2.4302,2.4301,2.4301,0,2.3915,2.3931,2.3972,2.4014,2.405,2.4031,2.4064,2.4096,2.4145,2.4174,2.4212,2.4271,2.4319,2.4338,2.4385,2.4418,2.4413,2.443,2.4428,2.4433,2.4327,2.4309,2.4434,2.4434,2.4434,2.4434,2.4434,2.4434,2.3988,2.4053,2.4056,2.4133,2.4149,2.4203,2.4223,2.425,2.4273,2.4339,2.4378,2.4389,2.4415,2.4464,2.4507,2.4512,2.453,2.4551,2.4553,2.4454,2.444,2.4427,2.4411,2.4555,2.4555,2.4655,2.4656,2.4657]},{"header":{"parameterUnit":"m.s-1","parameterCategory":1,"la1":30.2991,"la2":30.254,"lo1":-89.0895,"lo2":-89.0444,"dy":0.0017,"dx":0.0017,"nx":28,"ny":28,"refTime":"2024-12-19T09:00:00:Z","depth":0,"parameterNumber":3,"parameterNumberName":"V-component_of_WINDS"},"data":[0,0,0,0,0,0,0,0,0,0,0,0,0,0,0,0,0,0,0,0,0,0,0,0,0,0,0,0,0,0,0,0,0,0,0,0,0,0,0,0,0,0,0,0,0,0,0,0,0,0,0,0,0,0,0,0,0,0,-3.3447,-3.3448,0,-3.3553,-3.3554,-3.3556,-3.3568,-3.3567,-3.3566,-3.3565,-3.3672,-3.3676,-3.368,0,0,0,0,0,0,0,0,0,0,0,0,0,-3.3255,-3.3259,-3.3447,-3.3449,-3.345,-3.3553,-3.3554,-3.3556,-3.3568,-3.3567,-3.3566,-3.3565,-3.3671,-3.3675,-3.368,0,0,0,0,0,0,0,0,0,0,0,0,0,-3.3347,-3.326,-3.3447,-3.3469,-3.3472,-3.3553,-3.3554,-3.3556,-3.3569,-3.3567,-3.3566,-3.3564,-3.3669,-3.3675,-3.3681,-3.3747,0,0,-3.3698,-3.3701,0,0,0,0,0,0,0,0,-3.3342,-3.3354,-3.3464,-3.3467,-3.3471,-3.3546,-3.3526,-3.362,-3.3569,-3.3532,-3.3565,-3.3563,-3.3631,-3.364,-3.3663,-3.3752,-3.3757,-3.3699,-3.3702,-3.3705,-3.3706,0,0,0,0,0,0,0,-3.3336,-3.335,-3.3489,-3.3466,-3.347,-3.3473,-3.3484,-3.3544,-3.3589,-3.3535,-3.3536,-3.3548,-3.3633,-3.3658,-3.3666,-3.3758,-3.3699,-3.3704,-3.3707,-3.3709,-3.3907,-3.3908,0,0,0,0,0,0,-3.3326,-3.3345,-3.3486,-3.3492,-3.3401,-3.3477,-3.349,-3.3523,-3.3588,-3.3597,-3.355,-3.3549,-3.3649,-3.3659,-3.367,-3.3752,-3.3705,-3.371,-3.3713,-3.3905,-3.3907,-3.3909,0,0,0,0,0,0,-3.3321,-3.3338,-3.3481,-3.3419,-3.3437,-3.3482,-3.352,-3.3526,-3.3551,-3.36,-3.3608,-3.3567,-3.3648,-3.3662,-3.3728,-3.3755,-3.3713,-3.3718,-3.3903,-3.3906,-3.3908,-3.3916,0,0,0,0,0,0,-3.3316,-3.3336,-3.3362,-3.3419,-3.3441,-3.3538,-3.3521,-3.3529,-3.3561,-3.3561,-3.3618,-3.3626,-3.3648,-3.3719,-3.3734,-3.3763,-3.3722,-3.3901,-3.3904,-3.3907,-3.3913,-3.3918,-3.3923,0,0,0,0,0,-3.3309,-3.336,-3.3364,-3.338,-3.3474,-3.354,-3.3552,-3.3576,-3.3563,-3.359,-3.3621,-3.3624,-3.375,-3.3726,-3.3742,-3.3773,-3.3899,-3.3903,-3.3907,-3.3911,-3.3917,-3.3923,0,0,0,0,0,0,-3.3305,-3.3368,-3.3372,-3.3444,-3.3486,-3.3542,-3.3575,-3.3582,-3.3629,-3.3627,-3.3655,-3.3668,-3.3733,-3.376,-3.3732,-3.3841,-3.3823,-3.3831,-3.3821,-3.3827,-3.3832,-3.3824,-3.3727,0,0,0,0,0,-3.3312,-3.336,-3.3413,-3.3471,-3.3492,-3.353,-3.356,-3.3575,-3.362,-3.3638,-3.3674,-3.3717,-3.3767,-3.3799,-3.3847,-3.3917,-3.393,-3.3947,-3.3952,-3.3955,-3.3961,-3.4,-3.4008,-3.3922,-3.3922,-3.3922,0,0,-3.3328,-3.3368,-3.3397,-3.3471,-3.3506,-3.3555,-3.3545,-3.3597,-3.3634,-3.3646,-3.371,-3.3738,-3.3789,-3.3857,-3.3889,-3.3882,-3.3988,-3.396,-3.3963,-3.3967,-3.4005,-3.4013,-3.402,-3.3925,-3.3925,-3.3924,0,0,-3.3381,-3.3417,-3.3469,-3.3504,-3.3557,-3.3582,-3.3594,-3.3649,-3.3668,-3.3734,-3.3744,-3.3788,-3.3872,-3.3907,-3.3936,-3.4004,-3.4008,-3.4019,-3.4043,-3.4081,-3.4088,-3.4094,-3.4117,-3.4125,-3.4024,-3.4025,-3.4025,0,-3.3393,-3.3468,-3.3494,-3.3547,-3.3579,-3.3592,-3.3645,-3.3678,-3.3743,-3.3765,-3.3756,-3.3863,-3.3897,-3.3974,-3.3991,-3.4014,-3.4028,-3.4012,-3.4085,-3.4091,-3.4097,-3.412,-3.4129,-3.4025,-3.4025,-3.4025,-3.4025,0,-3.3481,-3.3532,-3.3568,-3.3631,-3.3668,-3.372,-3.3753,-3.3787,-3.3799,-3.3825,-3.3892,-3.3934,-3.3991,-3.4011,-3.4023,-3.4089,-3.4083,-3.4079,-3.4062,-3.4106,-3.4127,-3.4136,-3.4027,-3.4026,-3.4026,-3.4026,0,0,-3.3533,-3.3611,-3.3624,-3.3653,-3.3713,-3.3753,-3.3805,-3.3862,-3.3889,-3.3935,-3.3979,-3.4051,-3.4048,-3.408,-3.4097,-3.413,-3.418,-3.4122,-3.4124,-3.4131,-3.4255,-3.4257,-3.4267,-3.4184,-3.4186,-3.4187,-3.4251,0,-3.3593,-3.3687,-3.3713,-3.3793,-3.384,-3.3854,-3.39,-3.3942,-3.3968,-3.4012,-3.404,-3.409,-3.4083,-3.4102,-3.4136,-3.4167,-3.4205,-3.4163,-3.4225,-3.4227,-3.4211,-3.4278,-3.4281,-3.4338,-3.4259,-3.4261,-3.4262,0,-3.3675,-3.3722,-3.3807,-3.386,-3.3881,-3.3922,-3.3976,-3.4018,-3.4065,-3.4082,-3.4119,-3.4132,-3.4187,-3.4168,-3.4244,-3.4214,-3.4241,-3.426,-3.4263,-3.4269,-3.4246,-3.4285,-3.4358,-3.4366,-3.4276,-3.4275,-3.4274,0,-3.3704,-3.3789,-3.385,-3.3875,-3.3939,-3.3967,-3.3995,-3.4041,-3.4073,-3.412,-3.4141,-3.4194,-3.4222,-3.4262,-3.4289,-3.4273,-3.4363,-3.4346,-3.4377,-3.4377,-3.4395,-3.4393,-3.4472,-3.4414,-3.4414,-3.4413,-3.4413,0,-3.3767,-3.3818,-3.3864,-3.3902,-3.396,-3.3988,-3.4044,-3.4073,-3.4114,-3.4157,-3.4173,-3.4213,-3.4247,-3.4292,-3.4313,-3.4373,-3.4386,-3.44,-3.4405,-3.4398,-3.4396,-3.4415,-3.4412,-3.4416,-3.4415,-3.4415,-3.4414,0,-3.3809,-3.3842,-3.391,-3.3965,-3.398,-3.402,-3.4068,-3.4105,-3.4132,-3.4186,-3.4201,-3.4242,-3.4296,-3.4327,-3.4395,-3.441,-3.4475,-3.4479,-3.4459,-3.4461,-3.4491,-3.4487,-3.4584,-3.4597,-3.4531,-3.4531,-3.4532,0,-3.3847,-3.3886,-3.3946,-3.3977,-3.4005,-3.4054,-3.4087,-3.4117,-3.415,-3.4208,-3.4238,-3.4292,-3.4337,-3.4422,-3.4458,-3.451,-3.4514,-3.4545,-3.4522,-3.4514,-3.4514,-3.4511,-3.4515,-3.4548,-3.4549,-3.4549,-3.455,0,-3.391,-3.3924,-3.3971,-3.4025,-3.4064,-3.4107,-3.415,-3.4174,-3.4211,-3.4248,-3.4303,-3.4338,-3.4407,-3.4461,-3.4516,-3.4544,-3.4553,-3.4557,-3.4567,-3.4559,-3.4546,-3.4553,-3.4468,-3.4554,-3.4554,-3.4553,-3.4553,-3.4553,-3.395,-3.3986,-3.4034,-3.4086,-3.4122,-3.4161,-3.4199,-3.4231,-3.4277,-3.4336,-3.4351,-3.4409,-3.4455,-3.453,-3.456,-3.4605,-3.46,-3.4615,-3.4618,-3.4621,-3.4622,-3.454,-3.4615,-3.4615,-3.4615,-3.4615,-3.4615,0,-3.4014,-3.4045,-3.4093,-3.4153,-3.4194,-3.4199,-3.4247,-3.4281,-3.4332,-3.4374,-3.4419,-3.4482,-3.4535,-3.4575,-3.4629,-3.4657,-3.4662,-3.467,-3.4668,-3.4674,-3.4623,-3.4609,-3.4665,-3.4665,-3.4665,-3.4665,-3.4665,-3.4665,-3.4051,-3.4112,-3.4132,-3.4211,-3.4242,-3.4299,-3.4326,-3.4363,-3.4397,-3.4467,-3.4511,-3.4538,-3.4579,-3.4636,-3.4685,-3.4695,-3.4714,-3.4721,-3.4732,-3.4683,-3.4678,-3.4673,-3.4659,-3.4725,-3.4725,-3.4779,-3.4779,-3.4779]}]]